Regional Weather Roundup
Issued by NWS

Home | Current Version | Previous Version | Graphics & Text | Print | Product List | Glossary On
Versions: 1 2 3 4 5 6 7 8 9 10 11 12 13 14 15 16 17 18 19 20 21 22 23 24 25 26 27 28 29 30 31 32 33 34 35 36 37 38 39 40 41 42 43 44 45 46 47 48 49 50
000
ASUS43 KIND 290159
RWRIN

WEATHER ROUNDUP FOR INDIANA
NATIONAL WEATHER SERVICE INDIANAPOLIS IN
1000 PM EDT WED JUN 28 2017

NOTE: "FAIR" INDICATES FEW OR NO CLOUDS BELOW 12,000 FEET WITH NO
SIGNIFICANT WEATHER AND/OR OBSTRUCTIONS TO VISIBILITY.

* - STATION DOES NOT REPORT WEATHER SUCH AS PRECIPITATION OR FOG.

+ - STATION NOT QUALITY CONTROLLED BY THE NATIONAL WEATHER SERVICE.
    USE DATA WITH CAUTION...ESPECIALLY DEWPOINT AND RELATIVE
    HUMIDITY OBSERVATIONS.

INZ001>003-010>013-019-020-290300-
NORTHWEST INDIANA

CITY           SKY/WX    TMP DP  RH WIND       PRES   REMARKS
GARY /AIRPORT/ MOCLDY    79  57  47 S12G25    29.80S
MICHIGAN CITY+ PTCLDY    75  55  50 S15G25    29.82S
MONTICELLO +   CLEAR     75  57  53 S9G18     29.89S
RENSSELAER +   CLEAR     73  54  49 S15       29.86S

$$

LMZ046-743>745-290300-
SOUTHERN LAKE MICHIGAN

STATION/POSITION TIME  TEMP    WIND        PRES    WAVE
                       AIR SEA DIR/SP/G            HT
                 (UTC) (F)     (DEG/KT/KT) (MB)    (FT)
BURNS HARBOR     0140   77     180/ 17/ 25 1009.1F
MICHIGAN CITY    0130   77     170/ 20/ 24   N/A
5NW MICH CITY    0150   75 65  190/ 21/ 29   N/A     2

$$

INZ004-005-014>016-021>024-290300-
NORTH CENTRAL INDIANA

CITY           SKY/WX    TMP DP  RH WIND       PRES   REMARKS
GOSHEN         CLOUDY    75  52  44 S16G25    29.87S
SOUTH BEND     CLOUDY    74  57  55 S17G24    29.84F

$$

INZ006>009-017-018-025>027-290300-
NORTHEAST INDIANA

CITY           SKY/WX    TMP DP  RH WIND       PRES   REMARKS
ANGOLA *+      CLEAR     73  66  78 S12       29.91R
FORT WAYNE     PTCLDY    71  53  52 S10       29.95R
KENDALLVILLE + CLOUDY    73  52  47 S12G21    29.92R

$$

INZ028-029-035-036-043>045-051>053-290300-
WEST CENTRAL INDIANA

CITY           SKY/WX    TMP DP  RH WIND       PRES   REMARKS
CRAWFORDSVL +  CLEAR     70  59  68 S8        29.94S
LAFAYETTE      CLEAR     73  60  63 S7        29.90S
TERRE HAUTE    PTCLDY    74  59  59 S7        29.95R

$$

INZ030>032-037>040-046>048-054>057-064-065-290300-
CENTRAL INDIANA

CITY           SKY/WX    TMP DP  RH WIND       PRES   REMARKS
CP ATTERBURY + CLOUDY    68  55  64 S6        29.99R
COLUMBUS       PTCLDY    72  50  46 S9        29.99R
INDIANAPOLIS   CLOUDY    72  57  59 S12       29.96R
-EAGLE CREEK   CLOUDY    74  56  53 S7        29.96R
KOKOMO +       CLEAR     73  56  54 S12       29.96R
MT COMFORT *+  CLOUDY    72  55  56 S8        29.97R
SHELBYVILLE    CLOUDY    74  54  49 S10       29.98R

$$

INZ033-034-041-042-049-050-058-059-290300-
EAST CENTRAL INDIANA

CITY           SKY/WX    TMP DP  RH WIND       PRES   REMARKS
MUNCIE         CLEAR     74  53  48 S8        29.97R
RICHMOND +     PTCLDY    64  55  72 S7        30.01S

$$

INZ060-061-067>069-081>083-085>088-290300-
SOUTHWEST INDIANA

CITY           SKY/WX    TMP DP  RH WIND       PRES   REMARKS
EVANSVILLE     PTCLDY    77  60  55 S8        29.96S
HUNTINGBURG *+ CLOUDY    74  61  63 SE8       29.97F

$$

INZ062-063-066-070>080-084-089>092-290300-
SOUTH CENTRAL AND SOUTHEAST INDIANA

CITY           SKY/WX    TMP DP  RH WIND       PRES   REMARKS
BLOOMINGTON    CLOUDY    72  57  59 S6        29.98R
MADISON *+     PTCLDY    72  54  53 S5        30.03S
SEYMOUR +      CLOUDY    73  55  53 S7        29.98S

$$




USA.gov is the U.S. government's official web portal to all federal, state and local government web resources and services.